TimePST,TemperatureF,Dew PointF,Humidity,Sea Level PressureIn,VisibilityMPH,Wind Direction,Wind SpeedMPH,Gust SpeedMPH,PrecipitationIn,Events,Conditions,WindDirDegrees,DateUTC
12:55 AM,33.1,23.0,66,30.07,10.0,Calm,Calm,-,N/A,,Clear,0,2012-12-08 08:55:00
1:55 AM,30.9,24.1,76,30.08,10.0,Calm,Calm,-,N/A,,Clear,0,2012-12-08 09:55:00
2:55 AM,30.9,23.0,72,30.07,10.0,Calm,Calm,-,N/A,,Clear,0,2012-12-08 10:55:00
3:55 AM,30.0,23.0,75,30.08,10.0,Calm,Calm,-,N/A,,Clear,0,2012-12-08 11:55:00
4:55 AM,28.0,23.0,81,30.09,10.0,Calm,Calm,-,N/A,,Clear,0,2012-12-08 12:55:00
5:55 AM,28.0,21.9,78,30.11,10.0,Calm,Calm,-,N/A,,Clear,0,2012-12-08 13:55:00
6:55 AM,27.0,21.9,81,30.12,10.0,Calm,Calm,-,N/A,,Clear,0,2012-12-08 14:55:00
7:55 AM,28.9,23.0,78,30.14,10.0,Calm,Calm,-,N/A,,Mostly Cloudy,0,2012-12-08 15:55:00
8:55 AM,33.1,24.1,70,30.15,10.0,South,3.5,-,N/A,,Mostly Cloudy,190,2012-12-08 16:55:00
9:55 AM,37.9,26.1,62,30.16,10.0,Calm,Calm,-,N/A,,Mostly Cloudy,0,2012-12-08 17:55:00
10:55 AM,44.1,19.9,38,30.14,10.0,Calm,Calm,-,N/A,,Mostly Cloudy,0,2012-12-08 18:55:00
11:55 AM,46.9,19.9,34,30.12,10.0,Variable,3.5,-,N/A,,Mostly Cloudy,0,2012-12-08 19:55:00
12:55 PM,48.9,19.9,32,30.09,10.0,East,3.5,-,N/A,,Mostly Cloudy,90,2012-12-08 20:55:00
1:55 PM,51.1,19.9,29,30.06,10.0,SSW,3.5,-,N/A,,Mostly Cloudy,210,2012-12-08 21:55:00
2:55 PM,52.0,21.0,30,30.05,10.0,Calm,Calm,-,N/A,,Mostly Cloudy,0,2012-12-08 22:55:00
3:55 PM,51.1,21.0,31,30.05,10.0,Calm,Calm,-,N/A,,Scattered Clouds,0,2012-12-08 23:55:00
4:55 PM,46.0,23.0,40,30.08,10.0,NNE,3.5,-,N/A,,Scattered Clouds,30,2012-12-09 00:55:00
5:55 PM,44.1,26.1,49,30.11,10.0,NNE,8.1,-,N/A,,Scattered Clouds,20,2012-12-09 01:55:00
6:55 PM,42.1,26.1,53,30.12,10.0,NE,3.5,-,N/A,,Scattered Clouds,40,2012-12-09 02:55:00
7:55 PM,41.0,25.0,53,30.14,10.0,Calm,Calm,-,N/A,,Mostly Cloudy,0,2012-12-09 03:55:00
8:55 PM,39.0,25.0,57,30.15,10.0,Calm,Calm,-,N/A,,Mostly Cloudy,0,2012-12-09 04:55:00
9:55 PM,37.9,26.1,62,30.17,10.0,NW,3.5,-,N/A,,Mostly Cloudy,310,2012-12-09 05:55:00
10:55 PM,34.0,27.0,75,30.18,10.0,Calm,Calm,-,N/A,,Mostly Cloudy,0,2012-12-09 06:55:00
11:55 PM,37.0,25.0,62,30.19,10.0,Calm,Calm,-,N/A,,Mostly Cloudy,0,2012-12-09 07:55:00